Home   Weather   Askim   Past weeks

Flag for Norway Past Weather in Askim, Norway — Yesterday and Last 2 Weeks

Now
46 °F

Passing clouds.


Feels Like: 40 °F
Forecast: 30 / 45 °F
Wind: 14 mph from Southwest

Location: Rygge

Current Time: Apr 26, 2017 at 6:04:11 pm

Latest Report: Apr 26, 2017 at 5:20 pm


Visibility: N/A

Pressure: 29.77 "Hg

Humidity: 43%

Dew Point: 25 °F

Location of AskimLocation

Past Weather in Askim — Graph

°F

Askim Temperature Yesterday

Maximum temperature yesterday: 45 °F (at 6:50 pm)
Minimum temperature yesterday: 34 °F (at 12:20 am)
Average temperature yesterday: 38 °F

High & Low Weather Summary for the Past Weeks

 TemperatureHumidityPressure
High57 °F (Apr 21, 1:50 pm)100% (Apr 12, 2:20 am)30.54 "Hg (Apr 12, 2:20 am)
Low25 °F (Apr 16, 2:50 am)22% (Apr 22, 2:20 pm)29.24 "Hg (Apr 24, 8:50 pm)
Average40 °F65%29.84 "Hg
* Reported Apr 11 4:20 pm — Apr 26 4:50 pm, Askim, Weather by CustomWeather, © 2017

Note: Actual official high and low records may vary slightly from our data, if they occured in-between our weather recording intervals... More about our weather records

Advertising

Askim Weather History for the Previous 24 Hours

Scroll right to see more
 ConditionsComfort  
Time TempWeatherWind HumidityBarometerVisibility
4:50 pm
Wed, Apr 26
48 °FPassing clouds.14 mph34%29.77 "HgN/A
4:20 pm50 °FPassing clouds.9 mph28%29.77 "HgN/A
3:50 pm50 °FPassing clouds.9 mph30%29.77 "HgN/A
3:20 pm50 °FPassing clouds.10 mph30%29.77 "HgN/A
2:50 pm48 °FSunny.7 mph29%29.77 "Hg10 mi
2:20 pm48 °FSunny.14 mph29%29.77 "Hg10 mi
1:50 pm48 °FPassing clouds.14 mph29%29.77 "HgN/A
1:20 pm46 °FPassing clouds.12 mph32%29.77 "HgN/A
12:50 pm46 °FPassing clouds.13 mph32%29.77 "HgN/A
12:20 pm45 °FPassing clouds.12 mph31%29.77 "HgN/A
11:50 am45 °FPassing clouds.12 mph34%29.77 "HgN/A
11:20 am45 °FSunny.10 mph39%29.77 "Hg10 mi
10:50 am45 °FSunny.10 mph39%29.77 "Hg10 mi
10:20 am43 °FPassing clouds.12 mph39%29.77 "HgN/A
9:50 am41 °FSunny.13 mph42%29.77 "Hg10 mi
9:20 am41 °FPassing clouds.13 mph45%29.77 "HgN/A
8:50 am39 °FSunny.14 mph48%29.74 "Hg10 mi
8:20 am39 °FPassing clouds.13 mph45%29.74 "HgN/A
7:50 am37 °FSunny.10 mph52%29.74 "Hg10 mi
1:20 am37 °FClear.13 mph60%29.65 "Hg10 mi
12:50 am37 °FClear.9 mph60%29.65 "Hg10 mi
12:20 am37 °FClear.9 mph60%29.62 "Hg10 mi
11:50 pm
Tue, Apr 25
37 °FClear.12 mph60%29.62 "Hg10 mi
11:20 pm39 °FClear.10 mph61%29.62 "Hg10 mi
10:50 pm39 °FClear.9 mph61%29.62 "Hg10 mi
10:20 pm39 °FClear.14 mph61%29.59 "Hg10 mi
9:50 pm39 °FClear.12 mph61%29.59 "Hg10 mi
9:20 pm41 °FPassing clouds.13 mph57%29.59 "HgN/A
8:50 pm41 °FScattered clouds.13 mph61%29.59 "HgN/A
8:20 pm43 °FSunny.10 mph53%29.56 "Hg10 mi
7:50 pm43 °FPassing clouds.15 mph57%29.56 "HgN/A
7:20 pm43 °FScattered clouds.15 mph57%29.56 "HgN/A
6:50 pm45 °FScattered clouds.17 mph53%29.53 "HgN/A
6:20 pm43 °FScattered clouds.16 mph61%29.53 "HgN/A
Weather by CustomWeather, © 2017

See weather overviewHow to use our weather pages